ISS - Orbit

View from above orbital plane
View from above orbital plane
View from above satellite
View from above satellite

Ground track
Ground track

The orbit data is extracted from the following two-line orbital elements,

1 25544U 98067A   13145.52174769  .00012259  00000-0  21833-3 0  8768
2 25544 051.6494 220.7236 0009673 357.2796 187.7074 15.50496781831188
Epoch (UTC): 25 May 2013 12:31:19
Eccentricity: 0.0009673
inclination: 51.6494°
perigee height: 409 km
apogee height: 422 km
right ascension of ascending node: 220.7236°
argument of perigee: 357.2796°
revolutions per day: 15.50496781
mean anomaly at epoch: 187.7074°
orbit number at epoch: 83118

The dashed part of the orbit path shows where the satellite is in the earth's shadow,  

Developed and maintained by Chris Peat, Heavens-Above GmbH. Please read the updated FAQ before sending e-mail. Imprint. DLR